{"data":{"norad_id":47971,"epoch":"2026-09-19T21:32:57.151680Z","epoch_age_seconds":152381,"freshness":"FRESH","line1":"1 47971U 21023G   26262.89788370  .00018958  00000+0  33448-3 0  9999","line2":"2 47971  44.9802  76.7730 0004883 238.6794 121.3620 15.50143682309629","mean_motion":15.50143682,"eccentricity":0.0004883,"inclination_deg":44.9802,"raan_deg":76.773,"arg_perigee_deg":238.6794,"mean_anomaly_deg":121.362,"bstar":0.00033448,"rev_number":30962,"period_min":92.894614655469,"perigee_km":412.98846127321,"apogee_km":419.62391449049,"semimajor_km":6794.4431878819,"source":"CELESTRAK","updated_at":"2026-09-21T09:00:07.621903Z"}}